Location: Betz
(49.1556°N, 2.9558°E)
Time: 04:33:52
(UTC+00:00)

SPOT 5 - Pass Details

Date: 18 September 2019
Orbit: 624 x 814 km, 98.3° (Epoch: 17 October)

Event Time Altitude Azimuth Distance (km) Brightness Sun altitude
Exits shadow 21:09:37 44° 8° (N) 996 3.7 -29.4°
Drops below altitude 10° 21:13:09 10° 350° (N) 2,269 6.1 -29.8°
Sets 21:15:31 0° 348° (NNW) 3,227 7.1 -30.1°
